Regional Weather Roundup
Issued by NWS

Home | Current Version | Previous Version | Text Only | Print | Product List | Glossary Off
Versions: 1 2 3 4 5 6 7 8 9 10 11 12 13 14 15 16 17 18 19 20 21 22 23 24 25 26 27 28 29 30 31 32 33 34 35 36 37 38 39 40 41 42 43 44 45 46 47 48 49 50

000
ASUS44 KMEG 210600
RWRTN
TENNESSEE HOURLY STATE WEATHER ROUNDUP
NATIONAL WEATHER SERVICE MEMPHIS TN
100 AM CDT MON APR 21 2014

TNZ002-004-019-021-049-052-054-088>092-210700-
WEST TENNESSEE

CITY           SKY/WX    TMP DP  RH WIND       PRES   REMARKS
MEMPHIS INTL   FAIR      63  49  60 S7        30.10S
NWS MEMPHIS      N/A     59 N/A N/A MISG        N/A
JACKSON        FAIR      58  48  69 S7        30.10S
DYERSBURG      FAIR      57  45  62 CALM      30.10S
UNION CITY     CLEAR     55  52  88 CALM      30.08S
LEXINGTON      CLEAR     52  46  82 CALM      30.10S
$$

TNZ008-025-027-028-033-062-065-066-210700-
NORTH MIDDLE TENNESSEE

CITY           SKY/WX    TMP DP  RH WIND       PRES   REMARKS
NASHVILLE      FAIR      55  48  77 S6        30.12S
CLARKSVILLE    FAIR      55  45  68 CALM      30.09F
COOKEVILLE     CLEAR     46  45  93 CALM      30.12F
CROSSVILLE     FAIR      53  41  63 CALM      30.16F
$$

TNZ061-075-076-078-094-096-097-210700-
SOUTH MIDDLE TENNESSEE

CITY           SKY/WX    TMP DP  RH WIND       PRES   REMARKS
TULLAHOMA      CLEAR     50  45  81 CALM      30.15S
WINCHESTER     CLEAR     50  46  87 CALM      30.15S
MCMINNVILLE    CLEAR     48  48 100 CALM      30.14F
COLUMBIA       CLEAR     54  52  94 CALM      30.10F
$$

TNZ017-018-042-046-047-210700-
NORTHEAST TENNESSEE

CITY           SKY/WX    TMP DP  RH WIND       PRES   REMARKS
TRI CITIES     FAIR      45  33  63 N3        30.17F
ELIZABETHTON   CLEAR     45  34  65 CALM      30.19S
$$

TNZ012-013-036-069-073-074-210700-
CENTRAL EAST TENNESSEE

CITY           SKY/WX    TMP DP  RH WIND       PRES   REMARKS
KNOXVILLE      FAIR      51  42  71 NE3       30.13S
OAK RIDGE      FAIR      54  46  74 CALM      30.15S
$$

TNZ083-085-099-210700-
SOUTHEAST TENNESSEE

CITY           SKY/WX    TMP DP  RH WIND       PRES   REMARKS
CHATTANOOGA    FAIR      56  47  71 CALM      30.16S
$$

SKY/WX REPORTED AS FAIR MEANS FEW OR NO CLOUDS BELOW
12 THOUSAND FEET.




USA.gov is the U.S. government's official web portal to all federal, state and local government web resources and services.